Regional Weather Roundup
Issued by NWS

Home | Current Version | Previous Version | Graphics & Text | Print | Product List | Glossary Off
Versions: 1 2 3 4 5 6 7 8 9 10 11 12 13 14 15 16 17 18 19 20 21 22 23 24 25 26 27 28 29 30 31 32 33 34 35 36 37 38 39 40 41 42 43 44 45 46 47 48 49 50

611
ASUS43 KLSX 260957
RWRMO

WEATHER SUMMARY FOR MISSOURI
NATIONAL WEATHER SERVICE SPRINGFIELD MO
500 AM CDT WED APR 26 2017

NOTE: "FAIR" INDICATES FEW OR NO CLOUDS BELOW 12,000 FEET WITH NO
       SIGNIFICANT WEATHER AND/OR OBSTRUCTIONS TO VISIBILITY.
       CURRENT SKY AND/OR WEATHER CONDITIONS ARE NOT AVAILABLE FOR
       CHILLICOTHE AND FARMINGTON.

MOZ001>031-035>038-043-044-053-054-261100-
...NORTHERN AND WESTERN MISSOURI...

CITY           SKY/WX    TMP DP  RH WIND       PRES   REMARKS
KANSAS CTY INT CLOUDY    44  43  96 NW13G22   29.53F
LEE`S SUMMIT   CLOUDY    46  45  96 N18       29.53R FOG
ST JOSEPH      LGT RAIN  44  43  96 N16       29.55S
CHILLICOTHE      N/A     49  46  90 NW7       29.51S
KIRKSVILLE     CLOUDY    54  54 100 NW6       29.45F

$$
MOZ066>068-077>081-088>096-101>105-261100-
...SOUTHWEST MISSOURI...

CITY           SKY/WX    TMP DP  RH WIND       PRES   REMARKS
SPRINGFIELD    CLOUDY    57  56  96 S13       29.50R
JOPLIN         CLOUDY    59  58  96 S5        29.50S

$$
MOZ032>034-039>042-045>050-055>058-069>072-261100-
...CENTRAL MISSOURI...

CITY           SKY/WX    TMP DP  RH WIND       PRES   REMARKS
COLUMBIA       LGT RAIN  57  57 100 E20       29.32F
JEFFERSON CITY LGT RAIN  62  58  86 E16G31    29.37F
ROLLA          LGT RAIN  58  57  97 E10       29.46F
SEDALIA        CLOUDY    61  32  33 W14G21    29.47R

$$
MOZ051-052-059>065-261100-
...EAST CENTRAL MISSOURI...

CITY           SKY/WX    TMP DP  RH WIND       PRES   REMARKS
ST LOUIS INTL  LGT RAIN  71  57  61 SW29G43   29.51R

$$
MOZ072>076-082>087-097>100-106>115-261100-
...SOUTH CENTRAL AND SOUTHEAST MISSOURI...

CITY           SKY/WX    TMP DP  RH WIND       PRES   REMARKS
CAPE GIRARDEAU CLOUDY    67  55  65 S16       29.58R
FARMINGTON     CLOUDY    68  55  64 W18G35    29.59R
POPLAR BLUFF   CLOUDY    67  58  72 S9        29.58S
WEST PLAINS    CLOUDY    59  56  89 SE3       29.58F

$$



USA.gov is the U.S. government's official web portal to all federal, state and local government web resources and services.